Tracking 30990 objects as of 8-Jul-2025
HD Live streaming from Space Station
objects crossing your sky now

OBJECT E

Track OBJECT E now!
10-day predictions


NORAD ID: 55137
Int'l Code: 2023-003E
Perigee: 450.0 km
Apogee: 453.5 km
Inclination: 97.2 °
Period: 93.5 minutes
Semi major axis: 6822 km
RCS: Unknown
Launch date: January 9, 2023
Source: People's Republic of China (PRC)
Launch site: Jiuquan Satellite Launch Center, China (JSC)
Your satellite tracking list
Your tracking list is empty




NASA's NSSDC Master Catalog

Two Line Element Set (TLE):
1 55137U 23003E   25189.15667652  .00009357  00000-0  23256-3 0  9997
2 55137  97.1883 262.9085 0002536 302.3045  57.7956 15.40516879139068
Source of the keplerian elements: AFSPC